Regional Weather Roundup
Issued by NWS

Home | Current Version | Previous Version | Graphics & Text | Print | Product List | Glossary On
Versions: 1 2 3 4 5 6 7 8 9 10 11 12 13 14 15 16 17 18 19 20 21 22 23 24 25 26 27 28 29 30 31 32 33 34 35 36 37 38 39 40 41 42 43 44 45 46 47 48 49 50
000
ASUS43 KDMX 262007
RWRIA

WEATHER ROUNDUP FOR IOWA
NATIONAL WEATHER SERVICE DES MOINES IA
200 PM CST WED NOV 26 2014

NOTE: "FAIR" INDICATES FEW OR NO CLOUDS BELOW 12,000 FEET WITH NO
SIGNIFICANT WEATHER AND/OR OBSTRUCTIONS TO VISIBILITY.

* - THESE STATIONS ARE NOT NWS STATIONS...THUS NOT UNDER NWS
QUALITY CONTROL.  THEY ALSO DO NOT REPORT WEATHER SUCH
AS PRECIPITATION OR FOG.

IAZ001>003-012>014-020>022-031>034-043>046-262100-
   NORTHWEST IOWA

CITY           SKY/WX    TMP DP  RH WIND       PRES   REMARKS
CARROLL *      LGT RAIN  28  25  86 N22G30    30.09R WCI  15
CHEROKEE *     LGT SNOW  25  21  86 N20       30.17R WCI  11
DENISON *      LGT SNOW  27  25  93 N18G28    30.12R WCI  13
LE MARS *      CLOUDY    25  19  80 N15G22    30.23R WCI  12
ORANGE CITY *  MOSUNNY   23  18  80 N15G29    30.20R WCI  10
SHELDON *      CLOUDY    21  18  86 N17G29    30.19R WCI   7
SIOUX CITY     PTSUNNY   29  21  72 N23       30.21R WCI  15
SPENCER        LGT SNOW  24  19  81 N24       30.17R WCI   8
STORM LAKE *   MIX PCPN  25  21  86 N22G30    30.14R WCI  10
$$

IAZ055>058-069>071-079>083-090>094-262100-
   SOUTHWEST IOWA

CITY           SKY/WX    TMP DP  RH WIND       PRES   REMARKS
ATLANTIC *     CLOUDY    30  25  80 N26G33    30.07R WCI  16
AUDUBON *      SUNNY     28  23  80 N20G25    30.08R WCI  15
CLARINDA *     CLOUDY    32  28  86 NW24G36   30.09R WCI  19
COUNCIL BLFS * CLOUDY    28  27  93 NW18G31   30.11R WCI  16
CRESTON *      CLOUDY    28  28 100 N23       30.01R WCI  14
HARLAN  *      FLURRIES  28  27  93 N26G38    30.13R WCI  13
LAMONI         CLOUDY    31  29  92 NW17G23   29.97R WCI  19
RED OAK *      CLOUDY    32  27  80 NW18G30   30.09R WCI  20
SHENANDOAH *   CLOUDY    32  27  80 NW25G33   30.12R WCI  19
$$

IAZ047>049-059>061-072>074-084-262100-
   CENTRAL IOWA

CITY           SKY/WX    TMP DP  RH WIND       PRES   REMARKS
AMES           LGT SNOW  30  26  85 N12       30.05R VSB 1   WCI  20
ANKENY *       CLOUDY    30  28  93 N12       30.03R FOG     WCI  21
CHARITON *     LGT SNOW  32  28  86 N9        29.96R WCI  24
DES MOINES     FLURRIES  32  27  81 NE12      30.02R WCI  23
GRINNELL*      LGT SNOW  30  28  93 NE14      30.01R VSB 3/4 WCI  20
KNOXVILLE *    LGT SNOW  30  28  93 NE10G17   29.97R VSB 3/4 WCI  21
MARSHALLTOWN   LGT SNOW  30  26  85 NE12      30.04R FOG     WCI  20
PELLA *        LGT SNOW  32  28  86 NE6       30.01R WCI  26
PERRY *        CLOUDY    30  27  86 N17G24    30.06R FOG     WCI  18
$$

IAZ004>006-015-016-023>025-035-036-262100-
   NORTH CENTRAL IOWA

CITY           SKY/WX    TMP DP  RH WIND       PRES   REMARKS
ALGONA *       MIX PCPN  25  23  93 N15G22    30.13R VSB 3/4 WCI  12
CLARION *      RAIN      28  28 100 NE14      30.09R VSB 1   WCI  17
ESTHERVILLE    LGT SNOW  23  20  88 N21       30.15R FOG     WCI   8
FORT DODGE *   CLOUDY    28  21  74 N9        30.10R WCI  20
MASON CITY     LGT SNOW  26  23  88 N17       30.12R VSB 3/4 WCI  13
FOREST CITY *  LGT SNOW  27  25  93 N14G21    30.12R VSB 1   WCI  15
IOWA FALLS *   LGT SNOW  30  27  86 N10       30.07R WCI  21
$$

IAZ007>011-017>019-026>030-037>042-050>054-066-262100-
   NORTHEAST IOWA

CITY           SKY/WX    TMP DP  RH WIND       PRES   REMARKS
CEDAR RAPIDS   CLOUDY    30  26  85 E13       30.02R WCI  20
CHARLES CITY * LGT SNOW  28  27  93 NE12      30.11R VSB 1   WCI  18
CLINTON *      CLOUDY    28  23  80 E14       30.10R WCI  17
DECORAH *      SUNNY     27  21  80 VRB6      30.09R WCI  20
DUBUQUE        CLOUDY    26  23  88 E8        30.07R FOG     WCI  18
MONTICELLO *   CLOUDY    28  25  86 NE9       30.07R WCI  20
OELWEIN *      MIX PCPN  28  25  86 NE12      30.07R WCI  18
WATERLOO       CLOUDY    30  25  81 NE13      30.07R WCI  20
$$

IAZ064-065-067-068-078-262100-
   EAST CENTRAL IOWA

CITY           SKY/WX    TMP DP  RH WIND       PRES   REMARKS
DAVENPORT      CLOUDY    28  22  78 E15       30.06S WCI  16
IOWA CITY      LGT SNOW  30  25  81 E10       30.05R WCI  21
MT. PLEASANT * LGT SNOW  30  30 100 E14       29.99R VSB 3/4 WCI  20
MUSCATINE *    LGT SNOW  32  27  80 E13       30.04R WCI  22
QUAD CITIES    CLOUDY    29  24  82 E15       30.06R HAZE    WCI  18
$$

IAZ062-063-075>077-085>089-095>099-262100-
   SOUTHEAST IOWA

CITY           SKY/WX    TMP DP  RH WIND       PRES   REMARKS
BURLINGTON     LGT SNOW  31  30  96 E12       29.99R VSB 3/4 WCI  22
FAIRFIELD *    LGT SNOW  30  28  93 E14       29.98R WCI  20
FORT MADISON * LGT SNOW  34  32  93 E7        29.99R VSB 3/4 WCI  28
KEOKUK *       LGT SNOW  32  32 100 E10       29.97R WCI  24
OSKALOOSA *    LGT SNOW  30  28  93 E14       29.99R WCI  20
CENTERVILLE *  LGT RAIN  32  32 100 NE6       29.94R WCI  26
OTTUMWA        LGT SNOW  31  29  92 E13       29.97R VSB 3/4 WCI  21
WASHINGTON *   SNOW      30  30 100 E21G30    30.00R VSB 1/2 WCI  17
$$

ABBREVIATIONS USED IN REMARKS
   TC - TEMPERATURES IN CELSIUS
  WCI - WIND CHILL INDEX
   HX - HEAT INDEX
  VSB - VISIBILITY
$$




USA.gov is the U.S. government's official web portal to all federal, state and local government web resources and services.